Location: Gleizolles
(44.4833°N, 6.7667°E)
Time: 12:43:12
(UTC+00:00)

LilacSat-2 - Visible Passes

Search period start: 08 December 2022 00:00
Search period end: 18 December 2022 00:00
Orbit: 504 x 526 km, 97.5° (Epoch: 08 December)

Date Brightness Start Highest point End Pass type
(mag) Time Alt. Az. Time Alt. Az. Time Alt. Az.
08 Dec ? 04:32:54 10° NE 04:35:08 15° E 04:37:21 10° SE visible
08 Dec ? 06:05:53 10° N 06:09:21 38° WNW 06:12:47 10° SW visible
08 Dec ? 16:47:03 10° S 16:50:47 67° W 16:54:32 10° NNW visible
09 Dec ? 04:19:43 10° E 04:19:58 10° E 04:20:12 10° E visible
09 Dec ? 05:50:43 10° N 05:54:23 59° WNW 05:58:01 10° SSW visible
09 Dec ? 16:32:00 10° SSE 16:35:46 79° ENE 16:39:31 10° N visible
10 Dec ? 05:35:39 10° NNE 05:39:23 89° ESE 05:43:04 10° SSW visible
10 Dec ? 17:53:36 10° WSW 17:55:06 12° W 17:56:36 10° WNW visible
11 Dec ? 05:20:40 10° NNE 05:24:19 57° E 05:27:58 10° S visible
11 Dec ? 17:37:20 10° SW 17:39:56 18° W 17:42:31 10° NW visible
12 Dec ? 05:05:47 10° NNE 05:09:14 36° E 05:12:41 10° SSE visible
12 Dec ? 17:21:37 10° SSW 17:24:47 26° W 17:27:58 10° NW visible
13 Dec ? 04:51:02 10° NE 04:54:07 24° E 04:57:12 10° SSE visible
13 Dec ? 06:25:03 10° NNW 06:28:05 24° WNW 06:31:05 10° WSW visible
13 Dec ? 17:06:09 10° SSW 17:09:40 38° W 17:13:11 10° NNW visible
14 Dec ? 04:36:30 10° NE 04:38:58 17° E 04:41:24 10° SE visible
14 Dec ? 06:09:43 10° N 06:13:07 35° WNW 06:16:30 10° SW visible
14 Dec ? 16:50:53 10° S 16:54:34 60° W 16:58:16 10° NNW visible
15 Dec ? 04:22:35 10° ENE 04:23:45 11° E 04:24:56 10° ESE visible
15 Dec ? 05:54:30 10° N 05:58:07 53° WNW 06:01:44 10° SSW visible
15 Dec ? 16:35:46 10° SSE 16:39:30 87° ENE 16:43:15 10° NNW visible
16 Dec ? 05:39:21 10° N 05:43:05 83° WNW 05:46:47 10° SSW visible
16 Dec ? 16:20:47 10° SSE 16:24:27 56° ENE 16:28:07 10° N visible
16 Dec ? 17:57:54 10° WSW 17:58:50 11° W 17:59:46 10° WNW visible
17 Dec ? 05:24:18 10° NNE 05:28:00 63° E 05:31:41 10° S visible
17 Dec ? 17:41:15 10° SW 17:43:37 16° W 17:45:59 10° NW visible
